Preview of NWS' New Version of Forecast
This preview is not operational and should not be used for support decisions.

Regional Weather Roundup (RWR)

Issued by Lubbock, TX (LUB)

                            
826 
ASUS44 KLUB 212310
RWRLUB
WEST TEXAS WEATHER ROUNDUP
NATIONAL WEATHER SERVICE LUBBOCK TX
600 PM CDT THU JUN 21 2018

NOTE: "FAIR" INDICATES FEW OR NO CLOUDS BELOW 12,000 FEET WITH NO
SIGNIFICANT WEATHER AND/OR OBSTRUCTIONS TO VISIBILITY.

TXZ004-006>008-010-012-014-016-OKZ002-220000-
TEXAS PANHANDLE/OKLAHOMA PANHANDLE
  
CITY           SKY/WX    TMP DP  RH WIND       PRES   REMARKS
AMARILLO       SUNNY     91  57  31 MISG      29.99F                  
BORGER         SUNNY     91  63  39 VRB6      29.96F                  
CANADIAN       MOSUNNY   91  66  43 NW3       29.94F                  
DALHART        MOSUNNY   91  55  29 S14       30.00F                  
DUMAS          SUNNY     89  58  35 SW7       30.00F                  
GUYMON         SUNNY     87  64  46 SE8       29.95F                  
HEREFORD       MOSUNNY   95  55  25 S7        30.02F                  
PAMPA          MOSUNNY   91  61  37 W5        29.99F                  
PERRYTON       SUNNY     88  63  43 CALM      29.97F                  
$$

TXZ026-029-035-045-048-220000-
SOUTHERN PANHANDLE/SOUTH PLAINS/ROLLING PLAINS
  
CITY           SKY/WX    TMP DP  RH WIND       PRES   REMARKS
CHILDRESS      SUNNY     93  64  38 CALM      29.92F                  
SEMINOLE       SUNNY     93  56  28 S3        30.02S                  
LUBBOCK        MOSUNNY   96  57  27 S10       29.98F HX  95           
PLAINVIEW      PTSUNNY   91  58  32 S9        29.99S                  
SNYDER         SUNNY     95  58  29 E8        29.95F                  
$$

TXZ052-054-060>062-072-078-127-140-154-169-220000-
PERMIAN BASIN/CONCHO VALLEY/BIG COUNTRY/EDWARDS PLATEAU  
  
CITY           SKY/WX    TMP DP  RH WIND       PRES   REMARKS
ABILENE        MOSUNNY   94  60  32 VRB5      29.91F                  
BIG SPRING     MOSUNNY   96  56  25 N6        29.96F                  
BRADY          SUNNY     95  61  31 SE8G15    29.92F HX  95           
BROWNWOOD      RAIN      99  59  26 SW7       29.88F HX  98           
JUNCTION       MOSUNNY   95  65  37 VRB5      29.90F HX  97           
MIDLAND        SUNNY     96  58  27 E7        29.96F HX  95           
ODESSA         SUNNY     94  55  26 VRB7      29.98F                  
SAN ANGELO     SUNNY     99  59  26 NE6       29.91F HX  99           
SONORA         SUNNY     95  57  28 SE8       29.96F                  
SWEETWATER     SUNNY     97  56  25 SE6       29.96F HX  95           
WINK           SUNNY     95  59  30 SE8       29.94F                  
$$

TXZ055-058-074-075-080-082-220000-
FAR WEST/SOUTHWEST MOUNTAINS/TRANS PECOS
  
CITY           SKY/WX    TMP DP  RH WIND       PRES   REMARKS
ALPINE         SUNNY     90  52  27 E7        30.13S                  
DRYDEN           N/A     99  58  25 NE13G22   29.90F HX  98           
EL PASO        MOSUNNY  102  34   9 E5        29.95F HX  96           
FORT STOCKTON  SUNNY     94  57  28 VRB6      29.97F                  
GUADALUPE PASS MOSUNNY   90  51  26 E13G22    30.15F                  
MARFA          SUNNY     90  52  27 MISG        N/A                   
PECOS          SUNNY     95  57  27 SE7       29.94F                  
PRESIDIO       FAIR     100  52  20 E13G23    29.93F HX  97           
$$

TXZ014-016-019-021>030-083-220000
TEXAS TECH WEST TEXAS MESONET/TEXAS PANHANDLE/NORTHERN SOUTH PLAINS
  
CITY           SKY/WX    TMP DP  RH WIND       PRES   REMARKS
ABERNATHY 5ENE   N/A     92  56  29 SE7       30.01F                  
AMARILLO 9NNE    N/A     92  61  35 SW3       29.98F                  
AMARILLO 7SSE    N/A     91  59  33 SW8       30.01F                  
AMHERST 1NE      N/A     91  54  27 S5        30.02F                  
BOOTLEG 11WNW    N/A     92  53  26 W1        30.08F                  
CANADIAN 6E      N/A     89  64  44 W6        29.94F                  
CAPROCK CYN SP   N/A     93  59  31 S3        29.96F                  
CHILDRESS 2NNE   N/A     91  65  41 N5        29.93F                  
CLARENDON 2WSW   N/A     92  63  37 S9        29.97F                  
CLAUDE 12SW      N/A     92  60  33 W10       30.00F                  
DIMMITT 2NE      N/A     91  56  30 S1        30.04S                  
FLOYDADA 2NNE    N/A     92  58  31 S8        30.00S                  
FRIONA 2NE       N/A     92  53  26 S6        30.04F                  
GOODLETT 3W      N/A     95  60  31 NW6       29.89F                  
HART 3N          N/A     92  58  31 SW5       30.03F                  
HEREFORD 2NW     N/A     92  50  23 S2        30.04F                  
MCLEAN 1E        N/A     90  59  35 SW1       29.96F                  
MEMPHIS 1NE      N/A     92  66  42 SE7       29.93F                  
MULESHOE 2SSW    N/A     95  51  22 S8        30.02F                  
OLTON 6S         N/A     92  56  29 SE9       30.02F                  
PALO DURO SP     N/A     93  59  31 SW10      30.01F                  
PAMPA 2E         N/A     89  64  43 NW2       30.00F                  
PLAINVIEW 1S     N/A     93  58  30 E6        30.00F                  
SILVERTON 7ESE   N/A     93  57  29 NE3       29.98F                  
TULIA 2ENE       N/A     91  61  36 W5        30.02F                  
TURKEY 2WSW      N/A     92  66  42 NE7       29.95F                  
UMBARGER 3NNE    N/A     93  57  29 SW9       30.03F                  
$$

TXZ033>036-039>041-045>048-220000
TEXAS TECH WEST TEXAS MESONET/SOUTH PLAINS  
  
CITY           SKY/WX    TMP DP  RH WIND       PRES   REMARKS
AIKEN 3WSW       N/A     92  60  34 S7        30.02S                  
ANDREWS 2NE      N/A     93  55  28 E5        30.02F                  
ANTON 6SSW       N/A     94  56  27 S7G15     30.00F                  
BROWNFIELD 2S    N/A     94  54  26 SE7       30.01F                  
DENVR CTY 7WNW   N/A     92  51  24 S8        30.03F                  
GAIL 2ESE        N/A     96  53  22 SE6       29.94F                  
LAMESA 2SE       N/A     93  56  28 W5        29.99F                  
LUBBOCK 3WNW     N/A     95  55  26 S7        30.00F                  
MORTON 1ENE      N/A     94  51  22 S8        30.02F                  
ODONNELL 1N      N/A     95  50  21 W3G12     29.99F                  
PLAINS 3N        N/A     93  53  25 S8        30.04F                  
RALLS 1SE        N/A     91  56  30 S7        30.00F                  
REESE CENTER     N/A     92  53  26 S9        30.01F                  
SEAGRAVES 1SW    N/A     94  57  29 S8G15     30.02S                  
SEMINOLE 2NNE    N/A     91  54  28 SE7G14    30.01F                  
SLATON 2NE       N/A     94  52  23 S7        29.99F                  
SNYDER 3E        N/A     98  56  24 S3        29.95F HX  96           
SUNDOWN 8SW      N/A     93  53  25 SE10      30.02F                  
TAHOKA 3NNE      N/A     93  53  25 E5        29.99F                  
WOLFFORTH 6SSW   N/A     95  55  26 S8        30.00F                  
$$

TXZ031-032-036>038-042>044-220000-
TEXAS TECH WEST TEXAS MESONET/ROLLING PLAINS 
  
CITY           SKY/WX    TMP DP  RH WIND       PRES   REMARKS
ASPERMONT 3NE    N/A     99  59  26 SE2       29.90F HX  99           
FLUVANNA 3WNW    N/A     94  54  25 NE3       29.96F                  
GRAHAM 5SSW      N/A     95  55  25 SE5       29.97F                  
GUTHRIE 10WSW    N/A     98  53  22 SW3G9     29.91F HX  96           
HASKELL 1NW      N/A     99  53  21 W3        29.89F HX  96           
JAYTON 1SSE      N/A     96  57  26 NW3       29.91F HX  95           
KNOX CITY 3NW    N/A    100  60  26 N1        29.88F HX 100           
LK A HENRY 1NW   N/A     96  60  29 E7        29.93F HX  96           
NORTHFIELD 1S    N/A     95  63  35 S7        29.92F HX  96           
ODELL 4ENE       N/A     97  60  29 S5        29.89F HX  97           
PADUCAH 10SW     N/A     96  58  28 W3        29.92F HX  95           
POST 1NE         N/A     98  54  22 NW6       29.95F HX  96           
RRING SPRGS 3N   N/A     94  60  32 S8        29.96F                  
SEYMOUR 3NW      N/A     98  60  28 S5        29.87F HX  98           
SPUR 1W          N/A     94  57  29 SE3       29.94F                  
WEINERT 2NNE     N/A     99  58  26 NW6       29.89F HX  98           
WHITE RVR 6NE    N/A     95  59  29 E8G14     29.96F                  
$$

TXZ052-054-060>062-072-078-127-140-154-169-220000-
TEXAS TECH WEST TEXAS MESONET/PERMIAN BASIN/
CONCHO VALLEY/BIG COUNTRY/EDWARDS PLATEAU
  
CITY           SKY/WX    TMP DP  RH WIND       PRES   REMARKS
COYANOSA 2N      N/A     97  59  27 E9        29.95F HX  97           
JUNCTION 1SSW    N/A     94  66  39 E7        29.91F HX  96           
MERTZON 3NNE     N/A     98  59  27 E2        29.94F HX  97           
SAN ANGELO 7NW   N/A     98  53  22 SE6       29.92F HX  95           
STRLNG CT 4WSW   N/A     97  55  24 E7        29.95F HX  95           
ST LAWRNCE 5SW   N/A     95  53  23 NE7       29.96F                  
SWEETWATR 11SW   N/A     96  61  31 S7        29.96F HX  96           
WALL 1E          N/A     97  60  28 E14       29.92F HX  97           
$$

TXZ055-058-074-075-080-082-220000-
TEXAS TECH WEST TEXAS MESONET/FAR WEST/SOUTHWEST MOUNTAINS/TRANS PECOS
  
CITY           SKY/WX    TMP DP  RH WIND       PRES   REMARKS
PRSMN GAP BBNP   N/A     94  54  25 E9        29.96S                  
GUADLPE MTN NP   N/A     87  51  28 E7        30.17F                  
$$